| time (UTC) | temp C | wind direction | speed KPH | gust KPH | rain 1hr cm | rain 24hr cm | rain mn cm | humidity % | barometer mb |
| 20260504081639 | 1 | 12 | 0.0 | 0.0 | 0.00 | 0.00 | 0.00 | 95 | 1013.7 |
| 20260504080916 | 1 | 12 | 0.0 | 0.0 | 0.00 | 0.00 | 0.00 | 95 | 1013.9 |
| 20260504080416 | 1 | 12 | 0.0 | 0.0 | 0.00 | 0.00 | 0.00 | 95 | 1013.7 |
| 20260504080140 | 1 | 12 | 0.0 | 0.0 | 0.00 | 0.00 | 0.00 | 94 | 1013.7 |
| 20260504050416 | 3 | 13 | 0.0 | 0.0 | 0.00 | 0.00 | 0.00 | 90 | 1013.6 |
| 20260504045916 | 3 | 13 | 0.0 | 0.0 | 0.00 | 0.00 | 0.00 | 90 | 1013.6 |
| 20260504045416 | 3 | 13 | 0.0 | 0.0 | 0.00 | 0.00 | 0.00 | 89 | 1013.7 |
| 20260504044916 | 3 | 13 | 0.0 | 0.0 | 0.00 | 0.00 | 0.00 | 89 | 1013.9 |
| 20260504044415 | 4 | 13 | 0.0 | 0.0 | 0.00 | 0.00 | 0.00 | 88 | 1013.7 |
| 20260504044358 | 4 | 14 | 0.0 | 0.0 | 0.00 | 0.00 | 0.00 | 86 | 1013.8 |
| 20260504043416 | 4 | 14 | 0.0 | 0.0 | 0.00 | 0.00 | 0.00 | 87 | 1013.9 |
| 20260504042916 | 4 | 6 | 0.0 | 0.0 | 0.00 | 0.00 | 0.00 | 87 | 1013.7 |
| 20260504042416 | 4 | 6 | 0.0 | 0.0 | 0.00 | 0.00 | 0.00 | 86 | 1013.6 |
| 20260504041915 | 5 | 6 | 0.0 | 0.0 | 0.00 | 0.00 | 0.00 | 85 | 1013.7 |
| 20260504041416 | 5 | 6 | 0.0 | 0.0 | 0.00 | 0.00 | 0.00 | 80 | 1013.7 |
| 20260504040915 | 5 | 7 | 0.0 | 0.0 | 0.00 | 0.00 | 0.00 | 77 | 1013.8 |
| 20260504040910 | 5 | 6 | 0.0 | 0.0 | 0.00 | 0.00 | 0.00 | 86 | 1013.7 |
| 20260504035916 | 5 | 6 | 0.0 | 0.0 | 0.00 | 0.00 | 0.00 | 87 | 1013.8 |
| 20260504035416 | 5 | 4 | 0.0 | 0.0 | 0.00 | 0.00 | 0.00 | 84 | 1013.8 |
| 20260504035356 | 4 | 327 | 0.0 | 0.0 | 0.00 | 0.00 | 0.00 | 87 | 1013.8 |
| 20260504034415 | 4 | 332 | 0.0 | 0.0 | 0.00 | 0.00 | 0.00 | 88 | 1013.4 |
| 20260504033915 | 4 | 331 | 0.0 | 0.0 | 0.00 | 0.00 | 0.00 | 88 | 1013.5 |
| 20260504033416 | 4 | 333 | 0.0 | 0.0 | 0.00 | 0.00 | 0.00 | 88 | 1013.5 |
| 20260504032915 | 4 | 333 | 0.0 | 0.0 | 0.00 | 0.00 | 0.00 | 87 | 1013.3 |
| 20260504032415 | 4 | 333 | 0.0 | 0.0 | 0.00 | 0.00 | 0.00 | 87 | 1013.4 |
| 20260504031916 | 4 | 333 | 0.0 | 0.0 | 0.00 | 0.00 | 0.00 | 86 | 1013.5 |
| 20260504031416 | 4 | 333 | 0.0 | 0.0 | 0.00 | 0.00 | 0.00 | 86 | 1013.5 |
| 20260504030916 | 4 | 333 | 0.0 | 0.0 | 0.00 | 0.00 | 0.00 | 87 | 1013.6 |
| 20260504030416 | 5 | 333 | 0.0 | 0.0 | 0.00 | 0.00 | 0.00 | 86 | 1013.4 |
| 20260504025915 | 5 | 333 | 0.0 | 0.0 | 0.00 | 0.00 | 0.00 | 86 | 1013.3 |
| 20260504025404 | 5 | 333 | 0.0 | 0.0 | 0.00 | 0.00 | 0.00 | 86 | 1013.2 |
| 20260504024904 | 5 | 333 | 0.0 | 0.0 | 0.00 | 0.00 | 0.00 | 86 | 1013.2 |
| 20260504024404 | 5 | 333 | 0.0 | 0.0 | 0.00 | 0.00 | 0.00 | 86 | 1013.3 |
| 20260504024125 | 5 | 333 | 0.0 | 0.0 | 0.00 | 0.00 | 0.00 | 86 | 1013.5 |
| 20260504023403 | 5 | 333 | 0.0 | 0.0 | 0.00 | 0.00 | 0.00 | 85 | 1013.2 |
| 20260504022903 | 5 | 333 | 0.0 | 0.0 | 0.00 | 0.00 | 0.00 | 85 | 1013.5 |
| 20260504022404 | 5 | 333 | 0.0 | 0.0 | 0.00 | 0.00 | 0.00 | 85 | 1013.1 |
| 20260504021903 | 5 | 333 | 0.0 | 0.0 | 0.00 | 0.00 | 0.00 | 84 | 1013.4 |
| 20260504021404 | 5 | 333 | 0.0 | 0.0 | 0.00 | 0.00 | 0.00 | 85 | 1013.3 |
| 20260504020903 | 6 | 333 | 0.0 | 0.0 | 0.00 | 0.00 | 0.00 | 83 | 1013.2 |
| 20260504020629 | 6 | 333 | 0.0 | 0.0 | 0.00 | 0.00 | 0.00 | 83 | 1013.6 |
| 20260504015904 | 6 | 333 | 0.0 | 0.0 | 0.00 | 0.00 | 0.00 | 82 | 1013.3 |
| 20260504015403 | 6 | 333 | 0.0 | 0.0 | 0.00 | 0.00 | 0.00 | 82 | 1013.4 |
| 20260504015124 | 6 | 333 | 0.0 | 0.0 | 0.00 | 0.00 | 0.00 | 81 | 1013.4 |
| 20260504014404 | 6 | 333 | 0.0 | 0.0 | 0.00 | 0.00 | 0.00 | 81 | 1013.1 |
| 20260504013904 | 6 | 333 | 0.0 | 0.0 | 0.00 | 0.00 | 0.00 | 80 | 1013.2 |
| 20260504013624 | 7 | 333 | 0.0 | 0.0 | 0.00 | 0.00 | 0.00 | 78 | 1013.1 |
| 20260504012904 | 7 | 2 | 0.0 | 0.0 | 0.00 | 0.00 | 0.00 | 78 | 1013.2 |
| 20260504012404 | 7 | 4 | 0.0 | 0.0 | 0.00 | 0.00 | 0.00 | 79 | 1013.2 |
| 20260504011903 | 7 | 4 | 0.0 | 0.0 | 0.00 | 0.00 | 0.00 | 76 | 1013.3 |
| 20260504011403 | 7 | 4 | 0.0 | 0.0 | 0.00 | 0.00 | 0.00 | 74 | 1013.2 |
| 20260504010904 | 8 | 4 | 0.0 | 0.0 | 0.00 | 0.00 | 0.00 | 73 | 1013.1 |
| 20260504010629 | 8 | 4 | 0.0 | 0.0 | 0.00 | 0.00 | 0.00 | 71 | 1013.3 |
| 20260504005904 | 8 | 4 | 0.0 | 0.0 | 0.00 | 0.00 | 0.00 | 71 | 1013.2 |
| 20260504005403 | 9 | 4 | 0.0 | 0.0 | 0.00 | 0.00 | 0.00 | 66 | 1013.1 |
| 20260504004903 | 10 | 4 | 0.0 | 0.0 | 0.00 | 0.00 | 0.00 | 60 | 1013.0 |
| 20260504004625 | 10 | 4 | 0.0 | 0.0 | 0.00 | 0.00 | 0.00 | 62 | 1013.0 |
| 20260504003852 | 10 | 5 | 0.0 | 0.0 | 0.00 | 0.00 | 0.00 | 51 | 1013.0 |
| 20260504003616 | 11 | 5 | 0.0 | 0.0 | 0.00 | 0.00 | 0.00 | 51 | 1012.8 |
| 20260504002852 | 11 | 5 | 0.0 | 0.0 | 0.00 | 0.00 | 0.00 | 48 | 1012.8 |
| 20260504002340 | 11 | 2 | 0.0 | 0.0 | 0.00 | 0.00 | 0.00 | 51 | 1012.5 |
| 20260504001840 | 12 | 3 | 0.0 | 0.0 | 0.00 | 0.00 | 0.00 | 49 | 1012.8 |
| 20260504001600 | 12 | 15 | 0.0 | 1.6 | 0.00 | 0.00 | 0.00 | 48 | 1012.7 |
| 20260504000827 | 12 | 25 | 0.0 | 0.0 | 0.00 | 0.00 | 0.00 | 41 | 1012.5 |
| 20260504000327 | 12 | 330 | 0.0 | 1.6 | 0.00 | 0.00 | 0.00 | 44 | 1012.7 |
| 20260504000316 | 13 | 330 | 0.0 | 1.6 | 0.00 | 0.00 | 0.00 | 42 | 1012.5 |
| 20260503235315 | 13 | 260 | 0.0 | 1.6 | 0.00 | 0.00 | 0.00 | 39 | 1012.3 |
| 20260503234816 | 13 | 323 | 0.0 | 1.6 | 0.00 | 0.00 | 0.00 | 42 | 1012.1 |
| 20260503234315 | 13 | 309 | 0.0 | 4.8 | 0.00 | 0.00 | 0.00 | 38 | 1012.3 |
| 20260503233816 | 14 | 8 | 0.0 | 4.8 | 0.00 | 0.00 | 0.00 | 37 | 1012.3 |
| 20260503233316 | 14 | 12 | 0.0 | 4.8 | 0.00 | 0.00 | 0.00 | 37 | 1012.5 |
| 20260503232815 | 14 | 273 | 0.0 | 3.2 | 0.00 | 0.00 | 0.00 | 37 | 1012.3 |
| 20260503232315 | 14 | 4 | 0.0 | 4.8 | 0.00 | 0.00 | 0.00 | 37 | 1012.2 |
| 20260503232039 | 14 | 16 | 1.6 | 6.4 | 0.00 | 0.00 | 0.00 | 36 | 1012.4 |
| 20260503231316 | 15 | 332 | 0.0 | 11.3 | 0.00 | 0.00 | 0.00 | 38 | 1012.2 |
| 20260503230815 | 15 | 234 | 3.2 | 11.3 | 0.00 | 0.00 | 0.00 | 35 | 1012.2 |
| 20260503230316 | 15 | 315 | 0.0 | 9.7 | 0.00 | 0.00 | 0.00 | 36 | 1012.1 |
| 20260503225816 | 16 | 330 | 3.2 | 9.7 | 0.00 | 0.00 | 0.00 | 36 | 1012.1 |
| 20260503225315 | 15 | 333 | 0.0 | 14.5 | 0.00 | 0.00 | 0.00 | 35 | 1012.3 |
| 20260503224816 | 16 | 278 | 0.0 | 14.5 | 0.00 | 0.00 | 0.00 | 35 | 1012.2 |
| 20260503224317 | 16 | 321 | 0.0 | 9.7 | 0.00 | 0.00 | 0.00 | 34 | 1012.2 |
| 20260503223816 | 16 | 291 | 1.6 | 6.4 | 0.00 | 0.00 | 0.00 | 34 | 1012.2 |
| 20260503223315 | 15 | 294 | 3.2 | 11.3 | 0.00 | 0.00 | 0.00 | 35 | 1012.1 |
| 20260503222815 | 15 | 302 | 6.4 | 11.3 | 0.00 | 0.00 | 0.00 | 35 | 1012.5 |
| 20260503222546 | 16 | 20 | 4.8 | 11.3 | 0.00 | 0.00 | 0.00 | 34 | 1012.3 |
| 20260503221814 | 16 | 331 | 3.2 | 11.3 | 0.00 | 0.00 | 0.00 | 35 | 1012.1 |
| 20260503221534 | 16 | 286 | 3.2 | 12.9 | 0.00 | 0.00 | 0.00 | 35 | 1012.2 |
| 20260503220314 | 16 | 297 | 0.0 | 6.4 | 0.00 | 0.00 | 0.00 | 35 | 1012.1 |
| 20260503220256 | 15 | 248 | 0.0 | 11.3 | 0.00 | 0.00 | 0.00 | 36 | 1012.2 |
| 20260503215314 | 15 | 262 | 6.4 | 14.5 | 0.00 | 0.00 | 0.00 | 35 | 1012.2 |
| 20260503214813 | 15 | 18 | 8.0 | 16.1 | 0.00 | 0.00 | 0.00 | 36 | 1012.3 |
| 20260503214314 | 15 | 279 | 6.4 | 14.5 | 0.00 | 0.00 | 0.00 | 34 | 1012.2 |
| 20260503214034 | 16 | 3 | 1.6 | 9.7 | 0.00 | 0.00 | 0.00 | 38 | 1012.3 |
| 20260503213314 | 15 | 17 | 0.0 | 9.7 | 0.00 | 0.00 | 0.00 | 38 | 1012.0 |
| 20260503212813 | 15 | 306 | 3.2 | 6.4 | 0.00 | 0.00 | 0.00 | 36 | 1012.0 |
| 20260503212544 | 15 | 328 | 1.6 | 6.4 | 0.00 | 0.00 | 0.00 | 39 | 1012.2 |
| 20260503211802 | 15 | 273 | 3.2 | 12.9 | 0.00 | 0.00 | 0.00 | 36 | 1012.0 |
| 20260503211301 | 15 | 23 | 3.2 | 14.5 | 0.00 | 0.00 | 0.00 | 35 | 1011.9 |
| 20260503210802 | 15 | 302 | 3.2 | 14.5 | 0.00 | 0.00 | 0.00 | 36 | 1012.0 |
| 20260503210250 | 15 | 20 | 3.2 | 14.5 | 0.00 | 0.00 | 0.00 | 38 | 1012.2 |
| 20260503205749 | 16 | 11 | 6.4 | 12.9 | 0.00 | 0.00 | 0.00 | 37 | 1012.1 |
| 20260503205249 | 15 | 315 | 6.4 | 11.3 | 0.00 | 0.00 | 0.00 | 35 | 1012.3 |
| 20260503204749 | 16 | 291 | 3.2 | 11.3 | 0.00 | 0.00 | 0.00 | 35 | 1012.1 |
| 20260503204237 | 16 | 297 | 3.2 | 11.3 | 0.00 | 0.00 | 0.00 | 34 | 1012.1 |
| 20260503203737 | 16 | 299 | 4.8 | 11.3 | 0.00 | 0.00 | 0.00 | 36 | 1012.1 |
| 20260503203237 | 15 | 321 | 1.6 | 11.3 | 0.00 | 0.00 | 0.00 | 36 | 1012.2 |
| 20260503202724 | 16 | 314 | 4.8 | 11.3 | 0.00 | 0.00 | 0.00 | 35 | 1012.2 |
| 20260503202442 | 15 | 237 | 3.2 | 14.5 | 0.00 | 0.00 | 0.00 | 35 | 1012.2 |
| 20260503201724 | 16 | 235 | 0.0 | 14.5 | 0.00 | 0.00 | 0.00 | 38 | 1012.2 |
| 20260503201225 | 16 | 259 | 8.0 | 12.9 | 0.00 | 0.00 | 0.00 | 34 | 1012.2 |
| 20260503200725 | 16 | 290 | 3.2 | 11.3 | 0.00 | 0.00 | 0.00 | 35 | 1012.2 |
| 20260503200442 | 15 | 3 | 1.6 | 16.1 | 0.00 | 0.00 | 0.00 | 38 | 1012.5 |
| 20260503195725 | 15 | 277 | 9.7 | 16.1 | 0.00 | 0.00 | 0.00 | 36 | 1012.4 |
| 20260503195224 | 15 | 330 | 6.4 | 16.1 | 0.00 | 0.00 | 0.00 | 36 | 1012.5 |
| 20260503194726 | 15 | 318 | 3.2 | 9.7 | 0.00 | 0.00 | 0.00 | 35 | 1012.4 |
| 20260503194223 | 16 | 317 | 0.0 | 6.4 | 0.00 | 0.00 | 0.00 | 37 | 1012.4 |
| 20260503193723 | 15 | 310 | 1.6 | 6.4 | 0.00 | 0.00 | 0.00 | 36 | 1012.8 |
| 20260503193223 | 15 | 308 | 3.2 | 12.9 | 0.00 | 0.00 | 0.00 | 35 | 1012.7 |
| 20260503192723 | 14 | 306 | 1.6 | 12.9 | 0.00 | 0.00 | 0.00 | 38 | 1012.8 |
| 20260503192449 | 15 | 288 | 3.2 | 12.9 | 0.00 | 0.00 | 0.00 | 35 | 1012.7 |
| 20260503191949 | 14 | 44 | 1.6 | 11.3 | 0.00 | 0.00 | 0.00 | 40 | 1013.0 |
| 20260503191223 | 15 | 214 | 1.6 | 9.7 | 0.00 | 0.00 | 0.00 | 38 | 1012.9 |
| 20260503190723 | 16 | 118 | 3.2 | 9.7 | 0.00 | 0.00 | 0.00 | 37 | 1013.1 |
| 20260503190222 | 14 | 235 | 0.0 | 11.3 | 0.00 | 0.00 | 0.00 | 40 | 1012.9 |
| 20260503185723 | 14 | 295 | 3.2 | 11.3 | 0.00 | 0.00 | 0.00 | 36 | 1013.3 |
| 20260503185222 | 14 | 294 | 6.4 | 11.3 | 0.00 | 0.00 | 0.00 | 37 | 1013.2 |
| 20260503184724 | 14 | 245 | 1.6 | 11.3 | 0.00 | 0.00 | 0.00 | 37 | 1013.2 |
| 20260503184718 | 14 | 12 | 3.2 | 12.9 | 0.00 | 0.00 | 0.00 | 35 | 1013.4 |
| 20260503184211 | 14 | 270 | 3.2 | 12.9 | 0.00 | 0.00 | 0.00 | 37 | 1013.4 |
| 20260503183223 | 15 | 317 | 8.0 | 14.5 | 0.00 | 0.00 | 0.00 | 37 | 1013.4 |
| 20260503182723 | 14 | 319 | 3.2 | 16.1 | 0.00 | 0.00 | 0.00 | 39 | 1013.7 |
| 20260503182712 | 13 | 314 | 9.7 | 16.1 | 0.00 | 0.00 | 0.00 | 37 | 1013.7 |
| 20260503181723 | 14 | 305 | 3.2 | 14.5 | 0.00 | 0.00 | 0.00 | 39 | 1013.4 |
| 20260503181223 | 13 | 10 | 3.2 | 14.5 | 0.00 | 0.00 | 0.00 | 38 | 1013.7 |
| 20260503180722 | 14 | 10 | 3.2 | 11.3 | 0.00 | 0.00 | 0.00 | 39 | 1013.5 |
| 20260503180444 | 13 | 13 | 1.6 | 9.7 | 0.00 | 0.00 | 0.00 | 36 | 1013.6 |
| 20260503175723 | 14 | 226 | 3.2 | 11.3 | 0.00 | 0.00 | 0.00 | 39 | 1013.9 |
| 20260503175222 | 13 | 225 | 3.2 | 11.3 | 0.00 | 0.00 | 0.00 | 43 | 1013.6 |
| 20260503174722 | 13 | 269 | 3.2 | 9.7 | 0.00 | 0.00 | 0.00 | 38 | 1013.7 |
| 20260503174223 | 13 | 1 | 1.6 | 17.7 | 0.00 | 0.00 | 0.00 | 40 | 1013.9 |
| 20260503173723 | 13 | 305 | 4.8 | 17.7 | 0.00 | 0.00 | 0.00 | 39 | 1013.8 |
| 20260503173446 | 14 | 21 | 6.4 | 12.9 | 0.00 | 0.00 | 0.00 | 37 | 1013.9 |
| 20260503172723 | 14 | 274 | 1.6 | 12.9 | 0.00 | 0.00 | 0.00 | 40 | 1013.6 |
| 20260503172223 | 13 | 317 | 1.6 | 11.3 | 0.00 | 0.00 | 0.00 | 39 | 1013.9 |
| 20260503171722 | 13 | 7 | 3.2 | 11.3 | 0.00 | 0.00 | 0.00 | 39 | 1014.0 |
| 20260503171223 | 13 | 5 | 3.2 | 12.9 | 0.00 | 0.00 | 0.00 | 41 | 1013.8 |
| 20260503170722 | 13 | 0 | 0.0 | 12.9 | 0.00 | 0.00 | 0.00 | 40 | 1014.3 |
| 20260503170222 | 13 | 323 | 1.6 | 11.3 | 0.00 | 0.00 | 0.00 | 39 | 1014.4 |
| 20260503150926 | 10 | 19 | 6.4 | 11.3 | 0.00 | 0.00 | 0.00 | 39 | 1014.8 |
| 20260503150647 | 11 | 333 | 1.6 | 11.3 | 0.00 | 0.00 | 0.00 | 42 | 1014.9 |
| 20260503140134 | 9 | 250 | 3.2 | 14.5 | 0.00 | 0.00 | 0.00 | 45 | 1015.2 |
| 20260503131121 | 8 | 272 | 4.8 | 9.7 | 0.00 | 0.00 | 0.00 | 57 | 1015.4 |
| 20260503131054 | 7 | 11 | 3.2 | 9.7 | 0.00 | 0.00 | 0.00 | 56 | 1015.6 |
| 20260503130706 | 7 | 1 | 0.0 | 6.4 | 0.00 | 0.00 | 0.00 | 55 | 1015.5 |
| 20260503120121 | 6 | 281 | 3.2 | 14.5 | 0.00 | 0.00 | 0.00 | 63 | 1015.3 |
| 20260503110621 | 5 | 331 | 1.6 | 11.3 | 0.00 | 0.00 | 0.00 | 65 | 1014.5 |
| 20260503110120 | 5 | 305 | 3.2 | 6.4 | 0.00 | 0.00 | 0.00 | 65 | 1014.4 |